Temperature
25 26 26 27 27 27 26 26 25 25 25 26 26 25 25 24 23 23 23 22 22 21 20 19 18 17 16 15 15 14 14 13 13 12 12 12 12 12 11 11 11 11 11 11
24 26 26 27 27 27 27 26 26 25 25 26 25 24 23 22 22 22 22 22 22 21 20 19 18 17 16 16 15 14 14 13 13 12 12 12 12 12 11 11 11 11 11 11
23 25 25 25 27 26 26 26 25 24 24 24 23 22 22 21 21 22 22 21 21 21 20 19 18 17 16 15 15 14 14 13 13 13 12 12 12 12 11 11 11 11 11 12
23 23 23 26 27 26 26 25 23 23 22 22 21 20 21 21 20 20 20 20 20 20 20 19 18 17 16 16 15 14 14 13 13 13 12 12 12 12 12 11 11 11 12 12
22 23 24 25 24 24 23 22 19 19 19 19 19 19 20 19 18 18 19 19 19 20 19 19 18 17 17 16 15 14 14 14 13 13 13 12 12 12 12 12 12 12 12 12
22 21 20 21 22 22 22 21 17 17 17 17 17 17 17 17 17 17 17 17 18 19 19 19 18 17 16 16 15 14 14 14 13 13 13 13 12 12 12 12 12 12 12 12
21 20 21 17 19 20 18 14 13 13 13 13 14 14 14 15 15 15 15 16 17 17 18 18 18 17 16 16 15 15 14 14 13 13 13 13 13 12 12 12 12 12 12 12
21 20 18 14 15 13 11 10 10 10 10 10 10 11 11 12 13 13 14 14 14 15 15 17 17 16 16 15 15 15 14 14 13 13 13 12 12 12 12 12 11 11 11 11
19 15 11 10 10 9 9 9 8 8 9 9 9 9 9 10 11 11 12 12 12 13 13 14 15 15 15 15 14 14 14 14 13 13 13 12 12 12 12 12 11 11 11 11
17 13 12 10 9 9 8 8 8 9 9 9 9 9 9 9 9 10 11 11 11 11 11 12 13 14 14 14 14 14 13 13 13 13 12 12 12 12 12 11 11 11 11 11
13 10 10 10 9 8 8 9 9 9 10 10 10 10 10 10 10 10 10 10 10 10 10 11 12 12 13 14 13 13 13 13 13 12 12 12 12 12 12 12 12 12 11 11
10 9 9 8 8 8 8 9 9 10 10 11 10 10 10 10 10 10 10 10 10 10 10 10 10 11 11 13 13 13 13 13 12 12 12 12 12 11 11 12 12 12 12 11
9 9 8 8 8 9 9 10 10 10 11 10 10 9 9 9 9 9 9 9 9 9 9 9 10 10 10 11 12 13 13 12 12 12 12 12 12 11 11 11 11 12 12 12
9 8 8 9 10 10 10 10 11 11 11 10 10 10 10 10 9 9 9 9 9 9 9 9 9 9 10 10 11 12 12 12 12 13 13 12 12 12 11 11 11 11 11 11
9 9 10 10 11 11 11 12 12 12 11 11 11 10 10 9 9 9 8 8 8 8 8 8 8 9 9 9 10 11 12 12 13 13 13 13 12 12 12 11 11 10 10 10
10 11 11 12 12 12 11 11 11 11 11 11 10 10 10 9 9 8 8 8 8 8 8 8 8 8 8 9 9 10 12 12 13 13 13 13 13 12 12 12 11 10 10 10
11 12 12 11 11 11 10 10 10 10 10 10 9 9 9 9 9 8 8 8 7 7 7 8 8 8 8 8 9 10 11 12 13 13 13 13 12 12 12 12 11 11 10 10
11 11 11 10 10 10 9 9 9 8 8 8 8 8 8 8 8 8 8 7 7 7 7 8 8 8 8 8 8 9 10 12 12 12 13 13 12 12 12 12 11 11 10 10
10 10 10 10 9 9 8 8 7 7 7 7 7 6 7 7 7 7 7 7 7 7 7 8 8 8 8 8 8 9 10 11 12 12 12 12 12 12 12 12 12 11 11 10
10 10 9 9 8 8 7 7 6 6 5 5 5 4 4 5 5 5 5 6 6 7 7 7 8 8 8 8 8 9 10 11 11 12 12 12 12 12 13 12 12 11 11 11
9 9 9 8 8 8 7 6 5 4 4 3 3 3 3 3 3 4 4 5 6 6 7 7 8 8 8 8 8 9 10 10 11 12 12 12 13 12 12 12 12 12 12 11
9 9 9 8 8 7 6 5 4 3 3 2 2 2 2 2 3 3 4 4 5 6 7 7 8 8 8 8 8 9 9 10 11 12 12 13 13 13 13 13 13 12 12 12
9 9 9 8 8 7 6 4 3 2 2 2 2 2 2 3 3 3 3 4 5 6 6 7 7 7 7 8 8 9 9 10 11 12 13 13 13 13 13 13 13 13 13 13
9 9 8 8 7 6 4 3 2 2 2 2 3 3 3 3 3 3 4 4 5 6 6 7 7 7 7 7 8 9 9 10 11 12 13 13 13 13 13 13 13 13 13 13
9 8 8 8 6 5 4 3 2 2 2 3 3 4 4 4 4 4 4 5 6 6 7 7 7 7 7 7 8 9 9 10 11 12 13 13 13 13 13 13 13 13 13 13
8 8 8 7 6 4 3 2 2 3 3 3 4 5 5 5 5 5 5 5 6 7 7 7 7 7 7 7 8 9 9 10 11 12 13 14 13 13 13 13 13 13 13 13
8 8 7 6 5 4 3 3 3 3 4 4 5 6 6 6 6 6 6 7 7 8 8 8 8 7 7 8 8 9 10 10 11 13 14 14 14 14 14 14 14 14 14 14
Wind_Speed
16 19 20 21 21 19 18 18 19 19 19 16 14 14 12 12 13 15 14 12 8 5 3 3 4 5 6 6 6 6 5 6 5 4 2 1 2 1 1 1 1 2 4 4
19 20 21 21 18 16 14 13 13 15 15 15 14 13 13 14 16 17 16 13 9 6 4 4 4 5 6 5 5 6 6 6 6 6 4 3 2 2 2 2 1 2 3 5
18 19 19 16 12 9 9 11 12 15 15 16 14 15 15 15 17 19 15 11 9 7 5 4 5 5 5 5 5 6 6 6 7 7 6 4 3 3 3 3 3 4 7 8
14 17 17 12 11 12 10 9 15 15 16 17 18 18 15 14 14 14 15 13 11 9 7 6 6 7 7 7 6 6 6 7 8 9 8 5 3 4 4 4 4 5 8 8
11 15 15 12 12 11 9 6 19 18 19 21 22 21 18 18 20 18 17 14 11 10 9 7 6 7 7 7 7 7 7 7 9 10 9 7 5 5 4 5 5 5 7 7
11 15 15 9 15 13 9 6 20 21 21 22 22 17 17 22 23 22 21 17 14 12 9 7 7 7 7 8 8 8 7 8 10 11 11 10 7 6 5 6 5 5 7 7
13 13 5 13 16 13 6 10 20 21 21 21 18 16 20 24 24 22 20 20 19 16 9 7 8 8 9 9 8 8 7 8 10 12 12 11 9 6 6 6 6 5 7 6
8 10 4 19 12 8 8 13 17 18 19 20 21 23 25 26 25 25 24 22 20 18 15 9 8 10 11 10 8 7 7 8 10 11 12 13 11 9 7 7 7 6 6 6
5 5 8 13 11 9 10 12 13 15 17 18 20 21 23 24 25 24 23 22 20 18 17 15 10 9 12 11 8 7 7 8 9 11 11 10 12 12 9 8 7 7 7 7
5 9 7 13 13 12 12 13 15 15 16 16 16 18 19 20 22 23 22 21 19 19 18 16 15 12 12 11 9 9 8 8 9 10 10 10 11 11 11 11 9 8 8 8
6 8 9 12 14 15 16 17 18 19 19 19 20 21 20 17 17 17 19 18 17 16 17 16 16 16 14 13 11 10 9 9 10 10 10 10 11 9 10 9 9 9 8 8
5 7 8 13 14 16 17 19 21 23 24 23 23 24 23 19 16 16 17 17 18 18 19 17 14 15 16 13 13 12 10 10 10 10 10 10 10 7 6 4 8 13 11 10
5 8 11 15 18 20 21 24 25 25 25 24 24 23 22 21 19 19 18 18 19 19 19 18 15 13 15 14 14 14 12 11 11 11 12 12 12 11 9 6 8 9 15 17
8 11 15 18 21 23 25 27 26 26 25 24 23 22 21 20 19 20 20 20 20 20 20 19 18 14 12 14 14 15 15 14 12 11 11 12 12 12 12 12 9 6 7 16
12 14 19 23 25 26 26 27 27 27 25 24 22 21 21 20 20 21 21 22 22 21 19 19 19 15 11 13 15 17 16 13 12 11 11 11 11 12 12 13 13 12 9 7
18 21 23 25 26 28 29 29 28 28 27 25 23 21 21 21 21 21 20 21 21 21 18 16 17 16 11 12 15 14 15 17 14 11 11 11 11 11 11 11 11 12 13 12
22 24 26 27 28 29 29 28 28 28 27 26 25 25 23 22 21 21 20 20 20 20 19 16 15 15 12 10 12 11 14 14 14 13 11 11 11 11 10 11 12 12 13 15
24 25 25 26 27 28 29 28 28 28 27 27 27 26 24 23 22 21 21 21 21 21 18 15 12 11 12 11 10 11 13 13 12 12 9 9 10 10 10 11 13 14 12 14
25 26 26 27 27 26 26 26 27 26 26 26 26 26 25 25 23 22 20 21 22 21 18 14 11 10 12 12 11 10 11 12 12 12 10 11 12 11 10 12 13 14 13 14
25 26 27 28 27 26 26 25 26 25 25 26 26 26 25 25 24 23 22 20 18 17 15 14 11 10 10 11 11 9 11 11 12 13 12 12 13 12 11 12 13 14 13 14
27 28 29 28 27 26 25 25 24 25 25 25 25 25 25 25 23 21 19 18 17 16 15 14 10 8 7 8 9 8 10 10 10 13 14 13 13 13 12 12 13 13 13 13
27 27 28 28 27 25 24 22 23 25 25 26 27 26 25 23 22 20 20 16 16 15 13 12 9 5 5 8 7 8 10 9 8 11 13 12 12 13 12 12 12 13 13 13
26 26 27 26 25 24 25 24 25 25 26 27 26 25 22 19 15 15 15 14 13 13 11 11 8 4 5 7 7 8 10 9 9 11 13 12 12 12 12 12 12 12 11 11
25 25 25 24 23 23 24 25 26 24 25 26 23 22 19 15 12 12 13 14 15 15 12 10 7 7 6 6 6 7 9 9 9 11 13 13 12 12 12 11 10 11 11 12
25 25 24 23 21 18 20 24 26 25 24 21 23 21 15 10 10 10 11 13 14 13 12 10 10 9 7 7 7 7 8 8 9 10 11 12 14 13 13 12 11 11 11 11
22 20 19 17 16 14 16 18 19 19 20 19 18 15 12 8 9 9 9 11 13 12 11 7 6 7 7 7 7 8 8 8 9 11 11 12 15 14 13 13 14 12 11 11
22 19 16 17 17 16 17 18 19 21 20 20 19 15 12 9 7 7 8 8 8 8 6 5 5 5 5 6 7 7 7 7 8 8 8 10 11 12 13 14 12 11 11 11
Wind_Direction
293 297 295 291 289 290 289 287 288 294 302 320 344 348 351 348 341 331 323 312 299 279 267 263 261 254 256 247 240 239 232 230 218 199 188 153 122 127 138 313 3 32 63 61
291 292 293 293 290 290 293 300 307 318 325 343 349 354 358 352 338 325 314 310 308 304 290 263 247 251 252 242 234 231 235 229 204 191 190 175 165 164 152 157 152 135 110 83
290 297 299 295 303 308 305 313 329 331 340 354 357 358 352 340 324 318 316 320 319 308 289 253 234 232 235 234 230 230 232 222 195 188 188 186 190 158 148 149 133 104 93 88
285 290 285 290 353 348 331 357 6 360 2 357 349 342 331 329 339 342 331 320 311 302 291 262 230 219 218 223 224 228 225 210 194 186 184 185 180 154 159 132 107 100 100 99
287 289 295 326 17 9 349 359 28 4 353 348 342 331 326 340 338 327 317 304 287 275 268 260 241 228 222 216 218 227 225 204 191 185 182 181 180 169 153 130 129 123 117 113
272 287 294 346 359 351 316 290 15 1 354 350 347 335 328 332 328 327 326 317 301 280 258 238 228 222 223 222 215 219 217 195 185 184 183 184 182 176 160 146 156 146 132 130
260 267 259 19 2 354 333 345 358 359 355 350 343 329 325 330 330 329 328 329 331 319 278 233 215 208 217 226 224 216 207 187 181 184 186 185 181 180 168 165 165 156 144 143
302 293 308 15 30 39 0 349 354 354 352 346 337 333 333 330 328 328 330 331 335 335 322 276 223 209 214 220 221 215 204 187 181 181 191 190 183 183 179 174 161 154 152 150
23 66 82 52 57 34 8 354 348 343 340 337 332 331 329 327 324 324 326 327 331 332 330 315 271 224 219 216 211 217 207 188 179 185 198 184 181 185 181 179 176 173 173 171
59 75 75 53 31 12 356 339 329 324 319 316 312 311 312 313 314 315 318 321 325 328 327 327 315 267 230 218 208 212 209 186 178 183 186 181 183 186 187 186 186 187 186 181
33 8 352 5 358 343 331 324 317 311 306 302 300 299 299 296 297 302 308 312 315 317 321 321 325 307 258 222 211 210 205 187 181 181 179 178 183 186 192 191 191 190 192 177
5 359 327 318 316 310 305 302 301 301 304 307 310 308 308 306 304 303 304 308 311 314 315 318 317 318 295 244 214 207 204 191 188 183 178 176 172 153 63 119 166 184 172 158
330 310 297 294 293 291 291 294 298 301 304 306 304 301 301 300 300 301 303 306 308 309 309 310 312 315 315 280 232 209 205 193 190 185 180 179 174 167 152 94 77 121 144 141
295 290 291 294 296 296 296 295 295 293 292 291 292 294 296 297 300 303 304 303 301 301 302 304 306 308 322 308 260 220 208 198 192 187 180 180 176 173 171 165 156 132 119 135
290 286 290 295 297 299 301 303 304 304 303 300 296 294 295 298 301 303 304 304 301 297 297 301 304 304 311 320 282 234 210 202 196 188 181 181 178 177 176 176 175 165 145 135
301 303 305 308 312 315 316 316 315 313 312 308 304 299 295 294 295 297 301 303 301 298 296 296 297 300 302 312 295 243 212 203 190 189 184 179 180 184 180 178 177 170 167 165
314 318 323 323 321 320 319 319 317 316 315 313 309 305 300 295 292 293 297 300 299 295 291 287 289 297 298 302 293 246 215 201 191 192 188 182 183 187 183 179 177 174 174 171
323 323 322 321 321 320 320 320 319 317 314 312 310 307 303 298 295 295 296 299 299 294 287 282 285 298 301 301 285 240 215 199 191 194 189 183 181 185 183 180 179 178 175 168
326 323 322 322 322 320 319 317 315 314 314 314 313 311 308 304 301 299 297 297 298 295 289 285 282 286 293 294 283 243 218 201 185 190 193 184 183 187 185 181 180 179 176 170
323 322 322 322 322 320 317 316 317 317 316 315 313 310 306 304 303 300 297 294 290 289 291 289 282 279 290 293 286 246 216 205 190 188 195 193 190 190 187 183 183 183 183 177
323 323 322 321 320 320 319 319 319 317 315 313 308 303 300 297 296 293 291 290 290 291 292 287 274 270 287 297 282 246 217 206 196 189 195 194 189 191 192 188 186 188 190 186
322 321 320 320 321 322 323 323 321 319 316 311 306 301 297 293 290 288 283 280 282 284 283 282 276 269 297 300 273 238 214 205 202 197 196 192 187 190 193 190 189 192 193 190
321 320 321 321 323 326 327 328 325 322 316 311 306 301 295 288 284 280 279 277 280 284 283 280 276 249 285 286 258 227 209 207 214 208 195 190 188 189 194 193 191 193 191 190
322 323 323 325 330 332 332 330 325 320 314 311 306 301 296 290 281 271 268 271 271 276 277 273 247 237 254 263 246 221 208 214 223 213 195 189 189 188 194 196 191 190 192 192
325 325 327 333 336 336 334 327 322 320 317 316 312 309 304 289 278 275 273 275 277 276 275 264 234 236 246 246 227 217 210 217 225 217 195 186 189 191 193 198 197 195 197 199
328 327 331 336 339 337 331 324 321 320 320 320 321 319 314 301 283 274 268 268 268 267 268 265 245 235 236 230 215 210 213 221 231 228 201 184 188 191 193 196 198 200 201 204
329 332 334 336 338 337 331 326 323 324 324 326 328 325 324 319 307 294 285 282 281 275 266 253 239 227 222 216 209 206 212 227 232 220 200 185 185 190 194 193 198 200 202 204
Height
1493 1487 1482 1479 1475 1472 1473 1474 1478 1474 1471 1466 1465 1466 1467 1467 1468 1467 1466 1465 1463 1462 1462 1462 1462 1462 1462 1461 1460 1459 1458 1456 1455 1454 1454 1453 1452 1451 1450 1450 1449 1449 1448 1449
1494 1484 1477 1472 1466 1465 1466 1466 1467 1468 1470 1466 1467 1468 1469 1469 1469 1467 1464 1462 1460 1459 1459 1458 1458 1458 1457 1457 1456 1455 1454 1453 1452 1452 1452 1452 1452 1452 1452 1452 1452 1452 1453 1453
1496 1483 1479 1479 1466 1465 1466 1467 1471 1475 1474 1470 1471 1472 1472 1471 1469 1465 1462 1460 1458 1457 1456 1454 1454 1453 1452 1452 1452 1452 1451 1450 1449 1450 1451 1451 1452 1453 1453 1454 1455 1456 1456 1457
1496 1492 1497 1475 1461 1462 1465 1469 1474 1475 1476 1477 1477 1476 1474 1471 1469 1466 1463 1459 1457 1454 1452 1450 1449 1448 1448 1447 1448 1448 1447 1447 1447 1447 1449 1450 1451 1453 1454 1456 1457 1458 1458 1459
1497 1494 1483 1470 1470 1472 1476 1480 1487 1485 1484 1482 1479 1475 1472 1471 1469 1466 1462 1457 1453 1449 1447 1445 1444 1444 1443 1443 1443 1443 1444 1443 1444 1445 1446 1448 1450 1452 1454 1456 1458 1459 1460 1461
1496 1502 1502 1490 1480 1478 1479 1482 1494 1491 1489 1486 1480 1479 1476 1474 1470 1464 1458 1453 1448 1443 1440 1438 1438 1438 1438 1438 1438 1438 1439 1440 1440 1442 1444 1446 1448 1451 1453 1456 1458 1460 1461 1463
1494 1496 1487 1501 1490 1485 1493 1506 1502 1498 1495 1492 1489 1487 1481 1474 1468 1463 1456 1449 1443 1438 1434 1431 1431 1431 1431 1432 1432 1433 1434 1435 1436 1438 1440 1443 1446 1449 1452 1455 1458 1460 1462 1464
1487 1492 1498 1506 1500 1508 1516 1513 1508 1504 1500 1496 1492 1485 1478 1472 1466 1460 1453 1446 1440 1434 1429 1426 1424 1423 1423 1424 1426 1428 1429 1430 1432 1434 1437 1440 1443 1446 1450 1453 1456 1459 1461 1463
1494 1509 1518 1515 1516 1519 1517 1513 1509 1504 1499 1495 1489 1483 1476 1470 1464 1458 1452 1445 1438 1431 1425 1422 1418 1416 1416 1417 1420 1422 1423 1424 1427 1429 1433 1436 1439 1442 1446 1450 1453 1456 1459 1462
1501 1513 1515 1516 1516 1516 1514 1510 1506 1501 1495 1489 1483 1477 1471 1465 1459 1454 1448 1442 1435 1428 1422 1416 1411 1409 1411 1412 1414 1415 1417 1419 1421 1424 1428 1431 1435 1438 1442 1445 1449 1453 1457 1460
1510 1516 1514 1513 1513 1511 1508 1504 1499 1494 1489 1483 1477 1470 1464 1458 1453 1448 1443 1437 1432 1425 1418 1412 1407 1403 1405 1406 1407 1409 1411 1413 1415 1419 1423 1426 1430 1434 1438 1441 1445 1449 1453 1457
1520 1522 1521 1516 1511 1507 1502 1497 1492 1486 1480 1475 1471 1465 1459 1454 1449 1444 1438 1432 1427 1421 1414 1408 1403 1398 1397 1398 1400 1402 1405 1407 1409 1413 1417 1422 1426 1430 1434 1438 1442 1446 1451 1454
1523 1520 1517 1512 1507 1502 1496 1490 1485 1479 1473 1468 1463 1458 1453 1448 1442 1438 1432 1427 1422 1416 1410 1405 1399 1394 1390 1391 1392 1395 1398 1400 1403 1407 1411 1416 1421 1425 1429 1434 1438 1443 1447 1450
1518 1515 1511 1505 1499 1494 1488 1482 1476 1470 1464 1459 1454 1449 1445 1440 1435 1430 1426 1421 1415 1410 1404 1399 1394 1390 1386 1384 1384 1387 1391 1394 1397 1401 1406 1411 1416 1420 1424 1429 1433 1438 1443 1447
1513 1509 1503 1496 1490 1484 1478 1472 1465 1459 1454 1449 1445 1440 1436 1432 1427 1422 1418 1413 1407 1402 1396 1392 1387 1384 1381 1377 1375 1379 1385 1388 1392 1396 1400 1406 1411 1416 1420 1425 1429 1434 1438 1442
1506 1502 1496 1489 1483 1476 1470 1464 1458 1451 1446 1440 1436 1431 1427 1423 1418 1414 1409 1405 1399 1393 1388 1384 1380 1378 1376 1371 1368 1370 1376 1382 1386 1391 1395 1400 1406 1411 1415 1420 1424 1429 1432 1437
1501 1494 1488 1483 1477 1470 1465 1459 1452 1445 1439 1434 1428 1423 1418 1413 1409 1404 1400 1396 1391 1386 1381 1377 1373 1371 1369 1365 1361 1362 1369 1376 1380 1385 1390 1395 1401 1406 1411 1415 1419 1424 1428 1432
1498 1492 1486 1480 1473 1466 1458 1453 1447 1440 1434 1427 1421 1415 1409 1404 1399 1394 1390 1386 1381 1376 1372 1369 1366 1363 1361 1358 1355 1356 1362 1368 1374 1380 1385 1391 1396 1401 1406 1410 1415 1420 1424 1429
1493 1487 1481 1475 1469 1461 1454 1447 1440 1433 1426 1419 1412 1406 1400 1395 1389 1385 1381 1376 1371 1366 1363 1361 1359 1357 1355 1352 1349 1350 1355 1362 1369 1375 1381 1386 1391 1397 1402 1406 1411 1416 1421 1424
1487 1481 1475 1468 1462 1455 1447 1440 1432 1425 1418 1410 1403 1395 1389 1384 1379 1375 1371 1367 1363 1359 1356 1353 1352 1350 1349 1346 1343 1344 1349 1356 1363 1370 1376 1381 1387 1392 1397 1402 1407 1412 1417 1421
1481 1475 1468 1461 1454 1447 1440 1432 1424 1415 1407 1399 1391 1383 1376 1370 1367 1363 1359 1356 1353 1351 1349 1346 1345 1344 1343 1341 1339 1340 1345 1352 1358 1365 1371 1377 1382 1388 1393 1398 1402 1407 1412 1417
1476 1469 1461 1454 1446 1439 1432 1424 1415 1405 1395 1387 1378 1370 1363 1356 1353 1350 1347 1346 1344 1343 1341 1340 1340 1339 1337 1336 1335 1336 1341 1348 1354 1361 1367 1372 1378 1383 1388 1393 1398 1403 1407 1412
1470 1463 1455 1447 1440 1432 1424 1416 1406 1396 1385 1375 1365 1357 1350 1344 1341 1338 1336 1336 1336 1336 1335 1335 1334 1334 1333 1331 1330 1333 1338 1345 1351 1358 1363 1369 1374 1379 1384 1389 1394 1399 1403 1408
1465 1457 1450 1442 1434 1426 1417 1407 1397 1386 1376 1365 1355 1347 1340 1334 1330 1329 1328 1329 1329 1329 1329 1329 1329 1329 1328 1327 1328 1331 1336 1342 1348 1354 1360 1365 1370 1376 1381 1386 1390 1395 1399 1404
1460 1453 1445 1437 1430 1422 1413 1402 1390 1378 1367 1357 1347 1339 1333 1329 1325 1324 1324 1324 1324 1325 1325 1325 1325 1324 1323 1323 1325 1329 1334 1340 1345 1351 1357 1362 1367 1372 1377 1382 1387 1391 1396 1400
1456 1449 1442 1435 1428 1419 1409 1398 1386 1374 1363 1352 1343 1336 1331 1327 1324 1322 1321 1321 1321 1321 1321 1320 1319 1319 1319 1320 1323 1327 1332 1338 1343 1348 1354 1358 1363 1369 1373 1378 1383 1387 1392 1396
1452 1445 1438 1431 1424 1415 1405 1395 1383 1372 1361 1351 1342 1335 1331 1327 1324 1322 1321 1320 1320 1319 1318 1317 1316 1315 1316 1318 1321 1326 1331 1336 1341 1346 1351 1356 1360 1365 1370 1374 1379 1383 1387 1391